Wind_Speed
14 13 11 12 9 9 12 6 10 9 10 13 10 6 6 9 12 7 6 13 3 5 12 13 12 17 20 18 16 14 13 12 10 8 11 14 17 19 21 20 22 25 27 30 26 24 19 12 9
15 14 14 14 10 11 11 10 11 12 11 11 10 11 9 8 12 6 9 12 4 9 11 10 11 14 17 16 16 16 14 12 10 8 8 11 12 14 15 17 18 20 23 27 30 29 29 26 16
15 15 17 12 18 17 8 16 13 6 10 11 8 11 10 11 13 8 15 8 7 9 9 7 8 9 14 16 14 13 12 11 9 9 9 9 10 11 11 13 15 17 20 23 24 26 27 29 30
15 18 20 21 20 22 12 15 15 6 11 10 8 6 6 8 18 17 10 8 7 10 9 7 6 8 11 13 13 7 7 6 6 7 8 10 11 12 11 11 13 14 16 19 19 21 25 25 27
15 20 25 25 30 20 20 17 11 7 14 12 10 6 5 14 16 14 9 8 4 6 6 4 5 5 6 7 10 11 6 5 4 6 8 10 13 14 14 12 12 12 13 16 16 18 20 23 24
17 22 19 31 31 26 20 20 9 5 16 8 11 9 11 14 13 12 9 6 3 1 2 4 2 5 7 7 10 10 7 6 8 9 10 11 14 16 17 15 14 14 14 15 16 17 18 19 21
19 22 29 30 29 26 24 18 16 10 14 15 12 18 13 12 17 14 8 2 4 6 2 2 5 8 7 7 10 9 9 10 10 11 14 14 15 18 19 19 18 18 16 16 19 18 17 19 19
22 23 28 33 30 26 16 21 17 18 15 15 17 17 16 14 16 9 4 3 4 11 9 9 8 8 10 12 13 10 12 14 15 17 15 18 17 17 20 22 21 21 20 19 20 20 19 21 20
28 31 28 33 31 28 20 14 22 26 20 17 10 12 15 13 12 12 10 7 7 8 12 13 12 13 14 14 14 12 16 16 16 18 18 18 20 19 19 22 23 24 24 23 23 23 21 23 23
36 39 40 34 27 25 22 19 22 28 26 20 12 16 16 13 12 14 15 16 16 10 13 20 22 21 16 17 15 16 18 20 20 19 20 18 19 24 22 22 22 25 26 26 26 25 24 24 26
43 49 39 36 29 25 26 29 23 31 33 30 22 22 24 23 23 22 22 18 16 16 18 17 17 18 18 19 19 19 20 23 22 23 22 20 20 22 27 24 22 23 26 27 27 26 26 26 28
47 49 45 39 36 32 31 31 36 36 36 33 32 32 32 30 31 34 31 32 32 29 26 23 20 20 19 19 22 23 25 24 27 25 25 24 20 21 23 28 28 28 27 28 28 27 26 28 28
52 50 49 46 43 39 35 40 41 45 42 39 38 38 37 41 40 39 40 38 39 36 33 31 27 24 24 26 27 28 27 25 26 28 28 26 25 22 30 34 34 26 29 31 28 26 27 29 27
48 50 52 49 47 45 42 46 46 52 48 47 40 40 41 42 40 38 41 41 42 35 34 33 33 30 32 32 33 29 29 26 27 28 29 29 28 22 25 31 34 34 27 33 27 23 29 33 30
51 46 38 48 51 51 44 50 63 52 51 51 50 51 50 45 37 36 37 42 41 38 37 36 33 32 31 33 30 31 28 27 27 27 29 26 29 24 28 31 32 35 30 29 19 31 32 31 35
37 41 42 50 50 52 42 62 61 50 52 54 51 50 50 47 43 40 40 42 43 42 40 39 37 37 35 33 29 30 29 28 27 28 27 27 30 29 26 30 33 34 33 26 31 32 32 31 34
26 39 42 38 35 42 31 61 51 50 37 43 43 46 47 49 47 46 44 45 44 44 42 42 39 41 36 31 28 27 29 30 31 26 30 31 29 26 25 29 31 32 30 26 26 28 30 29 30
30 30 33 34 29 33 42 64 50 41 45 50 51 51 51 52 53 48 47 52 49 45 45 44 44 43 32 29 30 27 30 28 31 31 29 29 25 25 27 28 30 28 22 23 27 28 30 28 29
23 17 26 24 22 27 39 44 46 47 53 54 55 53 52 53 50 48 45 45 50 50 48 47 45 33 29 27 30 31 28 28 29 31 29 30 23 25 28 29 27 24 19 20 32 32 27 25 25
28 22 13 17 22 28 26 36 42 43 49 51 50 49 49 49 47 45 41 38 37 41 44 39 31 30 29 28 27 26 28 26 26 27 26 28 25 29 29 30 25 21 22 28 28 25 23 24 24
26 32 31 16 18 25 23 38 40 47 48 48 48 48 47 47 45 42 35 33 33 34 32 30 28 27 29 28 27 25 26 25 25 23 26 26 25 25 25 25 22 22 31 27 26 21 22 22 20
26 15 17 26 22 23 14 15 26 32 47 51 49 47 44 41 40 34 29 25 23 26 29 30 31 30 27 26 26 25 24 25 22 21 25 27 25 26 25 24 24 26 27 24 21 20 19 18 15
26 26 16 12 16 17 24 18 38 24 35 42 46 41 34 31 32 31 33 33 30 30 29 27 28 30 28 27 29 28 25 23 20 23 25 24 27 27 24 24 26 24 25 21 19 16 16 14 12
14 15 22 22 19 18 26 17 43 33 33 34 30 30 29 27 28 23 26 31 32 31 27 28 26 24 25 25 23 26 20 21 21 20 24 26 25 24 24 26 21 21 20 16 15 15 13 11 11
12 13 9 13 15 18 13 19 43 2 2 3 7 7 10 8 14 23 18 17 17 18 17 16 18 20 21 23 21 19 16 17 19 21 21 22 24 23 24 22 19 19 16 14 13 12 11 9 10
18 24 11 13 12 17 18 18 18 20 22 14 14 12 12 8 14 17 16 16 14 12 12 14 16 13 12 13 14 14 15 17 19 20 22 24 23 22 19 18 17 15 13 11 10 10 8 8 9
17 17 25 5 6 9 18 24 29 9 9 6 6 12 16 11 17 18 19 16 14 12 10 11 11 10 13 12 13 13 15 16 16 18 17 18 18 16 16 14 12 10 10 10 9 8 7 7 8
14 11 16 15 6 8 9 22 14 10 11 12 6 10 15 14 18 18 20 17 12 10 9 12 10 9 10 12 13 13 13 13 14 13 13 14 15 14 11 8 8 8 8 7 7 8 7 6 8
17 11 12 16 17 3 2 3 8 13 13 7 5 9 11 11 17 20 19 14 11 9 13 10 9 9 9 9 10 11 10 10 11 12 13 14 10 7 5 5 5 5 6 5 7 8 7 7 9
14 12 14 16 24 19 12 7 11 13 10 7 18 7 10 15 20 21 17 13 9 13 13 10 9 8 7 7 7 7 9 10 11 12 11 7 5 3 3 3 4 4 4 5 6 8 8 9 9
Wind_Direction
227 220 210 210 207 228 235 214 161 158 129 133 155 154 174 190 211 197 191 185 174 58 69 66 54 34 46 54 51 38 22 16 16 11 10 15 27 32 31 31 32 34 32 33 34 32 28 15 345
221 217 214 212 220 215 224 196 172 169 152 149 159 171 178 199 184 190 180 184 159 81 79 60 62 42 44 47 52 51 43 29 11 359 349 356 9 22 25 26 27 30 29 28 31 32 30 29 18
221 218 216 211 224 217 217 171 169 168 175 156 153 170 193 214 204 199 167 150 104 80 68 79 81 46 38 48 37 29 37 34 16 356 333 326 339 351 6 11 16 21 22 22 22 23 26 25 24
223 221 220 221 224 221 201 185 179 195 184 169 160 180 232 214 194 175 156 123 93 65 73 103 74 35 31 35 31 20 19 26 13 351 329 314 312 322 330 343 358 4 8 13 13 18 18 17 17
226 220 225 230 227 219 200 173 176 186 168 171 180 188 199 173 168 162 132 124 98 92 69 93 63 34 27 28 21 4 339 346 338 317 308 310 303 303 307 313 325 337 349 359 356 4 9 9 8
236 223 223 235 233 223 217 198 189 155 174 163 165 159 151 157 168 163 155 163 166 126 83 148 348 356 339 349 348 344 314 313 314 296 293 295 293 290 293 299 304 310 325 337 338 346 351 356 358
242 239 237 238 240 242 227 229 215 192 183 174 161 158 175 202 195 175 180 215 211 230 195 239 305 324 306 284 316 309 300 285 293 294 289 285 289 289 288 292 295 299 307 318 323 327 335 340 345
244 242 243 243 238 231 239 225 210 197 178 179 155 153 153 155 166 178 187 205 230 218 247 283 295 310 303 291 307 308 307 303 294 272 286 280 281 290 294 288 291 294 299 306 309 313 318 324 329
242 238 240 243 240 232 230 220 212 205 192 178 164 160 155 165 173 174 184 204 235 248 245 265 273 295 291 286 284 295 299 286 286 282 283 279 278 282 291 289 289 291 294 297 299 302 308 313 317
235 238 243 244 246 250 242 232 221 216 211 201 197 193 193 193 201 230 250 256 252 234 240 248 258 275 283 272 274 277 293 282 274 279 275 274 274 276 280 286 290 289 289 289 291 296 301 305 306
235 242 249 251 250 252 249 250 235 231 228 221 212 206 210 215 228 239 239 239 258 243 244 242 248 257 264 268 262 269 285 282 284 278 278 265 264 269 275 280 286 288 286 285 288 294 299 298 295
238 244 245 249 249 248 249 256 249 245 240 232 234 232 227 234 247 249 243 247 257 257 259 260 262 257 256 268 265 268 274 280 274 279 279 264 260 269 270 274 275 280 284 284 287 290 294 291 291
241 243 246 245 246 244 243 242 249 248 248 249 245 245 251 254 259 254 246 253 255 257 262 264 266 259 265 267 271 267 268 276 273 271 279 266 256 264 284 280 274 273 282 283 284 290 295 292 291
242 245 244 245 248 248 243 242 244 246 248 253 255 258 256 260 264 258 253 259 254 257 259 260 263 268 273 277 275 268 259 267 268 270 272 268 252 263 269 282 279 272 272 279 281 310 309 301 292
241 241 243 243 244 248 249 250 243 249 251 252 253 255 258 260 262 261 261 258 256 257 257 259 264 272 274 272 267 263 258 260 266 267 266 260 251 248 277 276 274 272 272 273 279 285 280 290 292
240 244 243 241 245 246 243 253 251 255 254 256 257 257 259 261 262 261 260 258 255 256 261 262 269 275 276 273 264 264 257 262 269 263 260 257 250 256 269 268 271 276 269 272 283 271 271 277 285
227 235 235 241 237 242 232 248 254 250 252 257 257 259 262 265 261 261 258 258 258 258 260 263 268 277 274 268 270 266 264 266 265 265 267 262 256 250 268 266 271 272 264 264 261 263 274 279 282
229 237 241 241 235 234 236 250 248 243 252 258 259 260 261 262 264 265 260 256 258 257 260 266 267 275 261 261 263 263 262 267 258 258 269 267 253 254 260 264 268 265 259 268 273 267 274 276 281
247 245 244 242 228 229 239 250 256 257 254 254 254 256 260 261 263 263 262 259 257 258 261 263 266 257 256 256 262 270 263 261 261 261 265 261 256 262 256 261 269 261 263 258 267 271 271 277 290
235 241 235 226 220 227 238 245 248 247 253 255 258 258 259 261 260 260 262 264 263 262 260 260 248 245 249 254 267 265 259 258 259 262 265 252 249 257 254 260 263 261 270 261 261 271 277 290 290
238 237 237 240 224 235 258 262 255 249 255 257 257 258 258 261 263 263 262 261 258 254 251 234 236 240 247 260 257 256 258 259 264 263 253 253 255 259 265 263 259 255 257 260 272 273 284 289 289
237 236 233 239 247 249 232 278 258 256 256 256 259 262 265 266 269 266 254 248 251 244 234 235 239 249 248 252 254 256 253 255 255 257 252 252 258 258 258 259 253 255 260 268 270 279 286 285 283
241 235 231 243 242 253 251 275 268 264 263 261 258 264 271 273 269 260 250 245 241 235 237 247 247 245 249 245 250 253 247 248 244 248 248 253 255 258 262 253 253 260 270 270 272 283 280 277 274
238 222 233 239 243 248 245 239 274 265 267 276 277 269 262 255 259 258 244 238 241 248 252 251 250 247 248 254 262 239 230 238 245 253 249 249 252 260 255 252 259 269 268 273 275 271 268 259 278
227 204 186 212 219 237 242 214 240 208 241 190 167 178 214 234 238 232 234 234 233 232 233 245 248 255 256 262 239 216 226 239 250 252 249 248 254 246 247 253 259 264 272 268 263 261 252 256 279
226 202 196 203 210 235 223 225 238 262 250 264 277 275 246 225 225 204 207 214 211 219 224 245 250 228 236 206 214 221 236 246 251 251 251 246 237 239 248 252 264 263 263 261 260 246 246 264 272
211 206 210 288 220 224 203 244 259 239 224 193 230 275 268 236 224 210 205 202 203 208 232 221 205 206 206 215 220 230 244 249 244 242 241 238 242 243 251 255 255 257 255 253 242 244 251 260 267
217 203 201 211 219 213 216 236 235 191 239 242 308 304 269 242 216 207 196 196 200 214 226 194 187 196 210 221 230 243 240 235 231 230 227 232 243 244 246 251 250 246 247 239 245 257 260 261 259
240 223 215 225 232 286 273 177 209 176 167 149 354 324 257 222 202 196 194 192 201 220 191 185 190 204 222 227 232 228 224 228 233 238 242 240 242 239 240 241 246 243 240 250 255 252 255 267 248
208 234 227 235 223 241 280 274 139 148 125 89 31 27 201 196 184 185 184 181 199 188 184 194 198 198 215 217 220 249 255 248 241 239 243 244 233 225 224 225 214 225 256 263 266 272 272 260 226
Height
3157 3158 3160 3162 3168 3163 3160 3162 3161 3163 3163 3164 3165 3167 3169 3171 3172 3176 3174 3176 3176 3177 3177 3176 3177 3177 3176 3177 3177 3178 3177 3177 3176 3176 3177 3177 3176 3175 3174 3173 3173 3172 3171 3169 3166 3164 3161 3160 3158
3154 3157 3158 3159 3162 3159 3158 3160 3161 3162 3162 3163 3165 3166 3168 3170 3170 3171 3173 3175 3176 3175 3176 3177 3176 3176 3177 3177 3177 3178 3178 3177 3177 3176 3177 3177 3176 3175 3174 3173 3173 3172 3170 3168 3166 3165 3163 3160 3158
3152 3155 3157 3156 3156 3154 3155 3158 3160 3162 3160 3162 3164 3165 3167 3168 3169 3170 3172 3174 3174 3175 3175 3176 3176 3177 3177 3177 3176 3177 3178 3177 3176 3176 3176 3176 3176 3175 3174 3173 3172 3170 3169 3168 3167 3165 3163 3161 3159
3150 3153 3154 3151 3149 3151 3154 3156 3158 3160 3159 3160 3162 3163 3165 3164 3168 3170 3171 3171 3172 3173 3175 3175 3176 3177 3177 3176 3176 3177 3176 3176 3175 3175 3175 3175 3175 3174 3173 3172 3170 3170 3169 3167 3166 3164 3162 3160 3159
3147 3147 3149 3146 3146 3148 3151 3154 3155 3157 3157 3157 3160 3161 3162 3163 3166 3169 3170 3170 3171 3171 3173 3175 3175 3175 3176 3176 3175 3175 3175 3175 3174 3174 3173 3173 3173 3173 3172 3171 3170 3169 3168 3166 3164 3163 3161 3160 3158
3145 3145 3142 3141 3142 3145 3149 3151 3152 3154 3154 3155 3157 3159 3161 3163 3165 3166 3167 3168 3169 3169 3171 3173 3173 3173 3174 3174 3173 3173 3172 3172 3172 3172 3171 3171 3170 3170 3170 3169 3168 3167 3166 3164 3162 3161 3160 3159 3157
3140 3140 3137 3139 3141 3142 3146 3148 3150 3152 3153 3153 3154 3157 3159 3160 3162 3164 3165 3166 3167 3168 3169 3170 3171 3171 3171 3171 3171 3171 3170 3169 3170 3169 3169 3169 3168 3167 3167 3166 3166 3165 3164 3163 3162 3160 3158 3157 3156
3136 3136 3133 3134 3136 3138 3141 3144 3147 3150 3151 3151 3151 3153 3155 3158 3160 3161 3162 3163 3164 3165 3166 3167 3167 3167 3168 3168 3169 3168 3167 3166 3166 3166 3166 3166 3165 3164 3164 3163 3163 3162 3162 3161 3160 3158 3157 3156 3154
3131 3129 3126 3127 3131 3134 3139 3141 3143 3143 3145 3146 3149 3151 3152 3155 3156 3157 3158 3160 3161 3161 3163 3164 3164 3164 3165 3165 3165 3165 3165 3164 3163 3163 3162 3162 3161 3161 3160 3160 3159 3159 3159 3158 3157 3155 3154 3153 3151
3122 3118 3119 3124 3128 3130 3136 3138 3138 3139 3141 3143 3146 3147 3148 3150 3152 3154 3155 3157 3157 3157 3158 3159 3161 3161 3160 3160 3161 3161 3161 3161 3160 3159 3158 3158 3157 3157 3157 3156 3155 3155 3155 3154 3153 3151 3150 3149 3147
3111 3106 3118 3120 3123 3127 3130 3130 3134 3133 3134 3138 3141 3142 3143 3144 3146 3147 3150 3151 3153 3154 3153 3154 3155 3155 3155 3155 3155 3155 3155 3154 3154 3154 3153 3153 3153 3153 3152 3152 3151 3151 3151 3150 3148 3147 3145 3144 3142
3103 3104 3110 3115 3117 3120 3124 3126 3123 3126 3129 3132 3135 3137 3138 3139 3141 3142 3142 3144 3147 3148 3149 3149 3149 3149 3149 3148 3148 3149 3149 3148 3148 3148 3147 3147 3148 3149 3148 3148 3147 3147 3147 3145 3144 3142 3140 3138 3137
3093 3099 3101 3105 3108 3113 3117 3117 3117 3115 3122 3125 3127 3129 3131 3134 3134 3135 3136 3138 3140 3140 3142 3143 3142 3142 3142 3141 3142 3142 3142 3141 3142 3141 3141 3141 3142 3143 3143 3142 3142 3142 3143 3141 3139 3137 3135 3134 3132
3088 3091 3091 3096 3099 3103 3107 3109 3112 3107 3115 3116 3118 3121 3123 3124 3125 3126 3128 3130 3132 3133 3135 3137 3135 3135 3134 3134 3133 3134 3134 3135 3134 3134 3134 3134 3134 3136 3136 3135 3136 3136 3137 3136 3135 3134 3132 3130 3127
3079 3081 3082 3083 3090 3092 3100 3096 3085 3103 3107 3109 3110 3112 3114 3115 3117 3118 3121 3121 3124 3125 3126 3127 3127 3126 3126 3125 3125 3126 3126 3127 3127 3127 3126 3127 3128 3129 3129 3129 3128 3129 3131 3130 3129 3127 3125 3122 3122
3070 3074 3073 3073 3079 3083 3090 3075 3084 3095 3097 3095 3102 3104 3103 3106 3108 3111 3113 3113 3115 3115 3116 3117 3118 3118 3118 3118 3117 3118 3119 3119 3120 3119 3119 3119 3120 3121 3122 3121 3122 3123 3124 3124 3121 3120 3118 3116 3115
3062 3057 3058 3069 3072 3077 3080 3064 3080 3085 3088 3087 3090 3091 3093 3094 3098 3100 3103 3103 3104 3105 3106 3108 3109 3109 3110 3111 3110 3110 3111 3112 3112 3112 3112 3112 3112 3114 3114 3114 3116 3117 3116 3115 3114 3113 3112 3111 3109
3050 3052 3056 3058 3066 3068 3069 3054 3071 3076 3077 3078 3079 3081 3081 3082 3084 3089 3091 3092 3092 3094 3097 3099 3101 3102 3102 3102 3103 3103 3103 3103 3103 3104 3105 3106 3107 3108 3107 3108 3109 3109 3108 3108 3108 3106 3105 3104 3103
3052 3050 3052 3055 3059 3061 3056 3056 3059 3065 3066 3066 3067 3069 3071 3072 3076 3078 3080 3082 3083 3085 3087 3090 3092 3093 3093 3094 3094 3095 3095 3095 3096 3097 3099 3099 3101 3101 3101 3101 3103 3103 3104 3102 3100 3100 3100 3098 3096
3045 3047 3048 3050 3052 3054 3052 3047 3049 3051 3051 3056 3058 3060 3061 3062 3065 3067 3070 3072 3073 3074 3077 3080 3082 3083 3085 3086 3087 3087 3088 3088 3089 3091 3092 3093 3093 3094 3095 3095 3095 3098 3098 3096 3096 3094 3092 3091 3090
3039 3040 3045 3047 3049 3048 3047 3038 3040 3043 3044 3046 3047 3049 3051 3052 3054 3057 3061 3062 3063 3064 3067 3070 3072 3074 3077 3078 3079 3080 3082 3082 3084 3084 3085 3087 3088 3088 3089 3088 3089 3089 3089 3090 3089 3088 3087 3086 3084
3034 3036 3038 3043 3047 3045 3045 3031 3031 3033 3033 3035 3038 3040 3042 3044 3046 3049 3052 3053 3054 3056 3058 3061 3064 3066 3068 3070 3072 3074 3076 3077 3078 3078 3079 3080 3081 3081 3083 3082 3083 3082 3083 3082 3083 3082 3081 3079 3079
3029 3033 3035 3039 3041 3042 3040 3040 3013 3024 3021 3025 3029 3034 3036 3037 3037 3038 3040 3042 3046 3047 3050 3055 3057 3058 3060 3062 3064 3067 3069 3070 3071 3071 3073 3074 3075 3075 3077 3077 3076 3076 3077 3077 3077 3076 3075 3075 3075
3025 3026 3031 3035 3038 3033 3034 3040 3005 3016 3016 3019 3023 3025 3028 3030 3029 3030 3030 3033 3036 3040 3045 3047 3049 3051 3053 3056 3057 3059 3062 3064 3065 3065 3066 3068 3069 3069 3069 3070 3070 3072 3072 3071 3071 3071 3071 3071 3071
3020 3022 3023 3028 3025 3020 3027 3032 3005 3008 3013 3015 3018 3020 3021 3021 3022 3024 3025 3028 3032 3035 3039 3041 3043 3045 3047 3049 3050 3054 3056 3059 3059 3060 3061 3063 3063 3064 3065 3066 3066 3067 3067 3067 3067 3067 3068 3068 3068
3014 3016 3011 3011 3012 3013 3024 3014 3005 3005 3011 3012 3013 3014 3015 3015 3017 3018 3022 3025 3029 3032 3035 3037 3039 3041 3042 3044 3047 3050 3052 3053 3054 3055 3056 3057 3058 3059 3060 3061 3062 3063 3063 3062 3063 3065 3065 3065 3065
3008 3009 3012 3012 3011 3011 3009 3004 3001 3004 3008 3009 3010 3010 3010 3010 3013 3015 3018 3023 3027 3029 3031 3033 3036 3037 3040 3042 3044 3046 3047 3049 3050 3050 3051 3052 3054 3055 3056 3058 3058 3058 3058 3059 3061 3061 3062 3062 3062
3004 3006 3009 3010 3005 3002 2997 3000 2998 3000 3004 3006 3008 3006 3004 3005 3009 3012 3016 3021 3024 3026 3028 3031 3033 3035 3037 3039 3040 3042 3044 3045 3046 3047 3048 3050 3051 3052 3053 3054 3055 3055 3056 3057 3058 3058 3059 3059 3059
3002 3002 3004 3004 3003 2996 2992 2991 2992 2996 3000 3002 3003 2999 2999 3002 3005 3010 3015 3018 3021 3023 3027 3029 3031 3033 3035 3036 3037 3039 3040 3042 3043 3044 3045 3046 3048 3048 3050 3050 3051 3052 3053 3054 3055 3055 3055 3056 3057
2999 3000 3001 2999 3000 3001 3002 2993 2990 2991 2995 2998 2996 2994 2996 2999 3003 3008 3013 3016 3019 3022 3025 3027 3029 3031 3033 3034 3036 3037 3037 3038 3039 3040 3041 3043 3044 3046 3047 3048 3049 3050 3051 3052 3052 3052 3051 3053 3054